Weather History for KBNA - August, 2014

Change the Weather History Date:

Friday, August 22, 2014

  Actual Average Record
Temperature  
Mean Temperature 84 °F 78 °F  
Max Temperature 94 °F 89 °F 102 °F (2007)
Min Temperature 73 °F 68 °F 53 °F (1956)
Degree Days  
Heating Degree Days 0    
Month to date heating degree days 0  
Since 1 June heating degree days 0  
Since 1 July heating degree days 0  
Cooling Degree Days 19    
Month to date cooling degree days 310  
Year to date cooling degree days 1339  
Since 1 June cooling degree days 1075  
Growing Degree Days 33 (Base 50)    
Moisture  
Dew Point 73 °F    
Average Humidity 73    
Maximum Humidity 94    
Minimum Humidity 52    
Precipitation  
Precipitation 0.00 in 0.10 in 2.24 in (1877)
Month to date precipitation 3.59 2.30  
Year to date precipitation 33.52 31.38  
Snow  
Snow 0.00 in 0.00 in - ()
Month to date snowfall 0.0 0.0  
Since 1 June snowfall 0.0 0.0  
Since 1 July snowfall 0.0 0.0  
Snow Depth 0.00 in    
Sea Level Pressure  
Sea Level Pressure 30.03 in    
Wind  
Wind Speed 4 mph (SW)    
Max Wind Speed 14 mph    
Max Gust Speed 17 mph    
Visibility 10 miles    
Events      
T = Trace of Precipitation, MM = Missing Value Source: NWS Daily Summary

Daily Weather History Graph

Daily Weather History Graph

Search for Another Location

Airport or City:

Trip Planner

Search our weather history database for the weather conditions in past years. The results will help you decide how hot, cold, wet, or windy it might be!

Date:

Astronomy

Aug. 22, 2014 Rise Set
Actual Time 6:10 AM CDT 7:28 PM CDT
Civil Twilight 5:43 AM CDT 7:54 PM CDT
Nautical Twilight 5:11 AM CDT 8:26 PM CDT
Astronomical Twilight 4:38 AM CDT 8:59 PM CDT
Moon 3:35 AM CDT (8/22) 5:34 PM CDT (8/22)
Length of Visible Light 14h 11m
Length of Day
13h 17m
Waning Crescent, 7% of the Moon is Illuminated
Aug 22
Waning Crescent
Aug 25
New
Sep 2
First Quarter
Sep 8
Full
Sep 15
Last Quarter

Hourly Weather History & Observations

Time (CDT) Temp. Heat Index Dew Point Humidity Pressure Visibility Wind Dir Wind Speed Gust Speed Precip Events Conditions
12:53 AM 78.1 °F - 73.0 °F 84% 30.06 in 10.0 mi South 4.6 mph - N/A   Clear
1:53 AM 77.0 °F - 73.0 °F 88% 30.05 in 10.0 mi SSW 3.5 mph - N/A   Clear
2:53 AM 75.2 °F - 73.4 °F 94% 30.06 in 10.0 mi Calm Calm - N/A   Clear
3:53 AM 75.2 °F - 71.6 °F 89% 30.04 in 10.0 mi Calm Calm - N/A   Clear
4:53 AM 73.9 °F - 72.0 °F 93% 30.03 in 10.0 mi South 3.5 mph - N/A   Clear
5:53 AM 73.9 °F - 72.0 °F 93% 30.05 in 10.0 mi South 4.6 mph - N/A   Scattered Clouds
6:53 AM 75.0 °F - 73.0 °F 94% 30.07 in 10.0 mi Calm Calm - N/A   Overcast
7:53 AM 81.0 °F 86.2 °F 73.9 °F 79% 30.09 in 10.0 mi Variable 3.5 mph - N/A   Overcast
8:53 AM 84.9 °F 92.1 °F 73.9 °F 69% 30.09 in 10.0 mi WSW 6.9 mph - N/A   Mostly Cloudy
9:53 AM 87.8 °F 95.6 °F 73.4 °F 62% 30.10 in 10.0 mi WSW 6.9 mph - N/A   Mostly Cloudy
10:53 AM 90.0 °F 99.0 °F 73.9 °F 59% 30.08 in 10.0 mi West 10.4 mph 16.1 mph N/A   Mostly Cloudy
11:53 AM 90.0 °F 99.0 °F 73.9 °F 59% 30.07 in 10.0 mi West 6.9 mph - N/A   Mostly Cloudy
12:53 PM 91.0 °F 99.3 °F 73.0 °F 55% 30.05 in 10.0 mi Variable 3.5 mph - N/A   Overcast
1:53 PM 91.0 °F 99.3 °F 73.0 °F 55% 30.04 in 10.0 mi WNW 5.8 mph - N/A   Overcast
2:53 PM 91.9 °F 99.5 °F 72.0 °F 52% 30.01 in 10.0 mi Variable 5.8 mph - N/A   Mostly Cloudy
3:53 PM 91.4 °F 100.1 °F 73.4 °F 55% 30.02 in 10.0 mi WSW 6.9 mph - N/A   Mostly Cloudy
4:53 PM 91.0 °F 97.6 °F 71.1 °F 52% 29.98 in 10.0 mi WSW 5.8 mph - N/A   Mostly Cloudy
5:53 PM 90.0 °F 97.9 °F 73.0 °F 57% 29.97 in 10.0 mi WSW 5.8 mph - N/A   Mostly Cloudy
6:53 PM 88.0 °F 94.7 °F 72.0 °F 59% 29.96 in 10.0 mi WSW 3.5 mph - N/A   Scattered Clouds
7:53 PM 86.0 °F 92.2 °F 72.0 °F 63% 29.97 in 10.0 mi Calm Calm - N/A   Partly Cloudy
8:53 PM 82.0 °F 87.4 °F 73.0 °F 74% 30.00 in 10.0 mi Calm Calm - N/A   Partly Cloudy
9:53 PM 80.1 °F 84.2 °F 73.0 °F 79% 30.01 in 10.0 mi Calm Calm - N/A   Clear
10:53 PM 80.1 °F 84.5 °F 73.9 °F 81% 30.01 in 10.0 mi Calm Calm - N/A   Clear
11:53 PM 78.1 °F - 73.9 °F 87% 29.99 in 10.0 mi Calm Calm - N/A   Clear